This is the latest recevied weather packets stored in our database for station/object K4IR. If no packets are shown the sender has not sent any weather packets the latest 1 day(s).
| Time | Temp. | Humidity | Pressure | Rain* | Wind** | Luminosity | Snow |
|---|---|---|---|---|---|---|---|
| 1778063032 | 12.22° C | 99% | 1015.9 hPa | 0 mm | - | 3 W/m² | - |
| 1778062430 | 12.22° C | 99% | 1015.9 hPa | 0 mm | - | 1 W/m² | - |
| 1778060617 | 12.22° C | 99% | 1015.6 hPa | 0 mm | - | 0 W/m² | - |
| 1778060017 | 12.22° C | 99% | 1015.6 hPa | 0 mm | - | 0 W/m² | - |
| 1778059413 | 11.67° C | 99% | 1015.6 hPa | 0 mm | - | 0 W/m² | - |
| 1778058202 | 11.67° C | 99% | 1015.5 hPa | 0 mm | - | 0 W/m² | - |
| 1778057000 | 11.67° C | 99% | 1015.6 hPa | 0 mm | - | 0 W/m² | - |
| 1778056394 | 11.67° C | 99% | 1015.4 hPa | 0 mm | - | 0 W/m² | - |
| 1778055188 | 11.67° C | 99% | 1015.6 hPa | 0 mm | - | 0 W/m² | - |
| 1778053983 | 11.11° C | 98% | 1015.9 hPa | 0 mm | - | 0 W/m² | - |
| 1778052778 | 11.11° C | 98% | 1015.3 hPa | 0 mm | - | 0 W/m² | - |
| 1778052172 | 11.67° C | 98% | 1015.4 hPa | 0 mm | - | 0 W/m² | - |
| 1778051567 | 11.11° C | 98% | 1015.5 hPa | 0 mm | - | 0 W/m² | - |
| 1778050967 | 11.67° C | 98% | 1015.4 hPa | 0 mm | - | 0 W/m² | - |
| 1778050362 | 11.11° C | 98% | 1015.5 hPa | 0 mm | - | 0 W/m² | - |
| 1778049155 | 11.67° C | 98% | 1016.3 hPa | 0 mm | - | 0 W/m² | - |
| 1778048550 | 11.67° C | 98% | 1016.2 hPa | 0 mm | - | 0 W/m² | - |
| 1778047949 | 11.67° C | 98% | 1016.4 hPa | 0 mm | - | 0 W/m² | - |
| 1778046744 | 11.67° C | 98% | 1016.3 hPa | 0 mm | - | 0 W/m² | - |
| 1778045539 | 11.67° C | 98% | 1016.3 hPa | 0 mm | - | 0 W/m² | - |
| 1778044935 | 12.22° C | 98% | 1016.4 hPa | 0 mm | - | 0 W/m² | - |
| 1778044334 | 12.22° C | 97% | 1016.7 hPa | 0 mm | - | 0 W/m² | - |
| 1778043729 | 12.22° C | 97% | 1016.8 hPa | 0 mm | - | 0 W/m² | - |
| 1778043128 | 12.78° C | 97% | 1016.7 hPa | 0 mm | - | 0 W/m² | - |
| 1778042529 | 12.78° C | 97% | 1017 hPa | 0 mm | - | 0 W/m² | - |
* Rain latest hour (hover to see other rain measurements)
** Current wind speed in m/s (hover to see current wind gust speed)